DELTA 1 DEB

Satellite information

Favourite Embed

Satellite Type and Status

DEBRISIN ORBIT

Key statistics

Satellite DELTA 1 DEB at a glance.

Uptime

17291

Days in orbit

Revolutions

≈ 14.3

Per day

Orbit

SSO

Sun Synchronous Orbit

Inclination

98.8

Latest

Satellite identification and parameters

Extended collection of information and parameters for DELTA 1 DEB.

Object identification

Identified? True

Debris? True

Object name: DELTA 1 DEB

International designator: 1978-026CT

Object number (NORAD): 12250

Object ID (CCSDS): 12250

Country: UNITED STATES OF AMERICA (US)

Current information (Y/N): Y

RCS size: SMALL

Orbital parameters

Period: 100.72 minutes

Inclination: 98.8287 deg

SMA: 7170.864 km

Apoapsis: 809.233 km

Periapsis: 776.226 km

RAAN: 212.4297 deg

Eccentricy: 0.0023015

Argument of periapsis: 11.4044 deg

Mean anomaly: 107.5155 deg

Mean motion: 14.29701899 rev/day

Mean motion (dot): 0.00000696 rev/day2

B* drag term: 0.00028857 1/REarth

Two-line elements (TLE)

Creation date: July 6, 2025, 2:16 p.m.

Reference frame: TEME

Reference center: EARTH

Epoch: July 6, 2025, 1:43 p.m. UTC

TLE line 0: 0 DELTA 1 DEB

TLE line 1: 1 12250U 78026CT 25187.57200067 .00000696 00000-0 28857-3 0 9997

TLE line 2: 2 12250 98.8287 212.4297 0023015 11.4044 107.5155 14.29701899298896

Live tracking on map

Real-time ground track for satellite DELTA 1 DEB.

In-orbit conjunctions

A list of the most updated potential collisions computed for object DELTA 1 DEB.

Target Orbit TCA Probability of collision Miss distance Type
RESURS O1 DEB SSO 2024-11-19 11:57:12 0.0001500713 97.0 (m) DEBRIS

Associated space launch

Earth observation satellite

DELTA 1 DEB was lifted into orbit during the mission ‘Delta 2910 | Landsat 3’, on board a Delta 2910 space rocket.

The launch took place on March 5, 1978, 5:54 p.m. from Space Launch Complex 2W.

For more information about the launch, click the button.

Launch to space Delta 2910 | Landsat 3
Delta 2910 | Landsat 3

Agency: N/A

Status: Launch Successful

Launch date: March 5, 1978, 5:54 p.m. UTC

Rocket: Delta 2910

Launch pad: Space Launch Complex 2W

Location: Vandenberg SFB, CA, USA

...

Latest news about this satellite

There are no fresh news available about this satellite. Check back as we update our databases every day.


Newsletter sign-up

Weekly statistics, charts and insights to help you stay on top of the space industry.